This is the latest recevied weather packets stored in our database for station/object KO4DYK. If no packets are shown the sender has not sent any weather packets the latest 10 day(s).
| Time | Temp. | Humidity | Pressure | Rain* | Wind** | Luminosity | Snow |
|---|---|---|---|---|---|---|---|
| 1778024358 | 19.44° C | 97% | 1011.8 hPa | 0 mm | - | 36 W/m² | - |
| 1778024056 | 19.44° C | 97% | 1011.8 hPa | 0 mm | - | 48 W/m² | - |
| 1778023753 | 19.44° C | 98% | 1011.8 hPa | 0 mm | - | 53 W/m² | - |
| 1778023451 | 19.44° C | 98% | 1012 hPa | 0 mm | - | 48 W/m² | - |
| 1778023147 | 18.89° C | 98% | 1012 hPa | 0 mm | - | 49 W/m² | - |
| 1778022845 | 18.89° C | 98% | 1012 hPa | 0 mm | - | 40 W/m² | - |
| 1778022543 | 18.89° C | 98% | 1011.8 hPa | 0 mm | - | 73 W/m² | - |
| 1778022240 | 18.89° C | 98% | 1011.8 hPa | 0 mm | - | 90 W/m² | - |
| 1778021936 | 18.89° C | 99% | 1011.7 hPa | 0 mm | - | 102 W/m² | - |
| 1778021634 | 18.89° C | 99% | 1011.5 hPa | 0 mm | - | 111 W/m² | - |
| 1778021329 | 18.89° C | 99% | 1011.4 hPa | 0 mm | - | 124 W/m² | - |
| 1778021027 | 18.89° C | 99% | 1011.6 hPa | 0 mm | - | 131 W/m² | - |
| 1778020724 | 18.89° C | 99% | 1011.6 hPa | 0 mm | - | 131 W/m² | - |
| 1778020421 | 18.33° C | 99% | 1012 hPa | 0 mm | - | 128 W/m² | - |
| 1778020116 | 18.33° C | 99% | 1011.9 hPa | 0 mm | - | 120 W/m² | - |
| 1778019813 | 18.33° C | 99% | 1012 hPa | 0 mm | - | 48 W/m² | - |
| 1778019510 | 18.33° C | 99% | 1012.3 hPa | 0 mm | - | 35 W/m² | - |
| 1778019207 | 18.33° C | 99% | 1012 hPa | 0 mm | - | 46 W/m² | - |
| 1778018904 | 18.33° C | 99% | 1012.4 hPa | 0 mm | - | 49 W/m² | - |
| 1778018601 | 18.33° C | 99% | 1012.4 hPa | 0 mm | - | 41 W/m² | - |
| 1778018299 | 17.78° C | 99% | 1012.6 hPa | 0 mm | - | 37 W/m² | - |
| 1778017996 | 17.78° C | 99% | 1012.5 hPa | 0 mm | - | 40 W/m² | - |
| 1778017694 | 17.78° C | 99% | 1012.5 hPa | 0 mm | - | 45 W/m² | - |
| 1778017391 | 17.78° C | 99% | 1012.6 hPa | 0 mm | - | 44 W/m² | - |
| 1778017088 | 17.78° C | 99% | 1012.6 hPa | 0 mm | - | 49 W/m² | - |
* Rain latest hour (hover to see other rain measurements)
** Current wind speed in m/s (hover to see current wind gust speed)